29.3°F
Current conditions from King Hill
Updated every 5 minutes
 
  Saturday November 1, 2014

Station Historical Data
Daily Summary for January 30, 2012 Units:  Metric    English   Both
« Previous Day
Next Day »
Daily Weekly Monthly Yearly Custom
  High: Low: Average:
Temperature: -2.1 °C -11.2 °C -6.2 °C
Dew Point: -4.1 °C -15.3 °C -11.3 °C
Humidity: 88% 49% 68%
Wind Speed: 12.9km/h 1.6km/h 6.3km/h
Wind Gust: 30.6km/h - -
Wind- - NW
Pressure: 1023.2 hPa 1012.4 hPa -
Precipitation: 0 mm    
Historical Graphs
 
 
Tabular Data for January 30, 2012
Time Temperature Dew Point Pressure Wind Wind Speed Wind Gust Humidity Daily Rainfall
00:00 -2.1 °C -4.2 °C 1012.4 hPa WSW 1.6 km/h 4.8 km/h 85% 0 mm
00:05 -2.1 °C -4.1 °C 1012.4 hPa WSW 3.2 km/h 6.4 km/h 86% 0 mm
00:09 -2.2 °C -4.2 °C 1012.4 hPa WSW 3.2 km/h 8 km/h 86% 0 mm
00:15 -2.2 °C -4.2 °C 1012.4 hPa WSW 8 km/h 16.1 km/h 86% 0 mm
00:20 -2.3 °C -4.3 °C 1012.4 hPa West 6.4 km/h 16.1 km/h 86% 0 mm
00:25 -2.4 °C -4.4 °C 1012.4 hPa West 11.3 km/h 16.1 km/h 86% 0 mm
00:30 -2.5 °C -4.5 °C 1012.4 hPa WNW 6.4 km/h 16.1 km/h 86% 0 mm
00:35 -2.6 °C -4.6 °C 1012.4 hPa WNW 6.4 km/h 12.9 km/h 86% 0 mm
00:40 -2.7 °C -4.7 °C 1012.4 hPa WNW 6.4 km/h 12.9 km/h 86% 0 mm
00:45 -2.7 °C -4.7 °C 1012.4 hPa West 8 km/h 14.5 km/h 86% 0 mm
00:49 -2.8 °C -4.6 °C 1012.4 hPa WNW 6.4 km/h 14.5 km/h 87% 0 mm
00:55 -2.8 °C -4.6 °C 1012.4 hPa WNW 8 km/h 14.5 km/h 87% 0 mm
01:00 -2.8 °C -4.7 °C 1012.4 hPa WNW 6.4 km/h 12.9 km/h 87% 0 mm
01:05 -2.8 °C -4.7 °C 1012.4 hPa WNW 3.2 km/h 9.7 km/h 87% 0 mm
01:09 -2.8 °C -4.7 °C 1012.4 hPa NW 4.8 km/h 9.7 km/h 87% 0 mm
01:15 -2.8 °C -4.7 °C 1012.4 hPa NW 4.8 km/h 9.7 km/h 87% 0 mm
01:20 -2.8 °C -4.6 °C 1012.4 hPa West 4.8 km/h 11.3 km/h 88% 0 mm
01:25 -2.9 °C -4.8 °C 1012.4 hPa West 3.2 km/h 11.3 km/h 87% 0 mm
01:30 -2.9 °C -4.8 °C 1012.4 hPa Calm   8 km/h 87% 0 mm
01:35 -3 °C -4.8 °C 1012.4 hPa West 1.6 km/h 6.4 km/h 87% 0 mm
01:40 -3.1 °C -4.9 °C 1012.8 hPa West 1.6 km/h 4.8 km/h 87% 0 mm
01:44 -3.1 °C -4.9 °C 1012.8 hPa Calm   4.8 km/h 87% 0 mm
01:50 -3.1 °C -5.1 °C 1012.8 hPa NW 4.8 km/h 11.3 km/h 86% 0 mm
01:55 -3.1 °C -5.1 °C 1012.8 hPa NW 4.8 km/h 11.3 km/h 86% 0 mm
02:00 -3.1 °C -5.3 °C 1012.8 hPa NW 9.7 km/h 17.7 km/h 85% 0 mm
02:04 -3.1 °C -5.4 °C 1012.8 hPa NW 8 km/h 17.7 km/h 84% 0 mm
02:09 -3.1 °C -5.6 °C 1012.8 hPa WNW 6.4 km/h 12.9 km/h 83% 0 mm
02:15 -3.1 °C -5.7 °C 1012.8 hPa NW 3.2 km/h 11.3 km/h 82% 0 mm
02:20 -3.1 °C -5.7 °C 1012.8 hPa NW 1.6 km/h 9.7 km/h 82% 0 mm
02:25 -3.1 °C -5.7 °C 1013.1 hPa NW 1.6 km/h 9.7 km/h 82% 0 mm
02:30 -3.1 °C -5.8 °C 1013.1 hPa NW 4.8 km/h 11.3 km/h 81% 0 mm
02:35 -3.1 °C -5.8 °C 1013.1 hPa Calm   11.3 km/h 81% 0 mm
02:40 -3.1 °C -5.8 °C 1013.1 hPa Calm   3.2 km/h 81% 0 mm
02:45 -3.1 °C -5.9 °C 1013.1 hPa West 1.6 km/h 6.4 km/h 81% 0 mm
02:50 -3.1 °C -6.1 °C 1013.1 hPa WNW 3.2 km/h 8 km/h 80% 0 mm
02:55 -3.1 °C -6.1 °C 1013.1 hPa NW 1.6 km/h 8 km/h 80% 0 mm
03:00 -3.1 °C -6.1 °C 1013.1 hPa WNW 4.8 km/h 14.5 km/h 80% 0 mm
03:04 -3.1 °C -6.2 °C 1013.4 hPa NW 4.8 km/h 14.5 km/h 79% 0 mm
03:10 -3.1 °C -6.2 °C 1013.4 hPa NW 3.2 km/h 12.9 km/h 79% 0 mm
03:14 -3.1 °C -6.4 °C 1013.4 hPa Calm   11.3 km/h 78% 0 mm
03:20 -3.2 °C -6.4 °C 1013.8 hPa WNW 8 km/h 11.3 km/h 78% 0 mm
03:25 -3.1 °C -6.4 °C 1013.8 hPa NW 1.6 km/h 11.3 km/h 78% 0 mm
03:35 -3.2 °C -6.4 °C 1013.8 hPa NW 4.8 km/h 8 km/h 78% 0 mm
03:40 -3.2 °C -6.4 °C 1014.1 hPa NW 3.2 km/h 17.7 km/h 78% 0 mm
03:45 -3.2 °C -6.6 °C 1014.1 hPa NW 4.8 km/h 17.7 km/h 77% 0 mm
03:50 -3.2 °C -6.7 °C 1014.1 hPa WNW 3.2 km/h 11.3 km/h 77% 0 mm
03:55 -3.3 °C -6.7 °C 1014.1 hPa NW 6.4 km/h 16.1 km/h 77% 0 mm
03:59 -3.4 °C -7 °C 1014.4 hPa NW 6.4 km/h 16.1 km/h 76% 0 mm
04:05 -3.5 °C -7.1 °C 1014.4 hPa NW 3.2 km/h 14.5 km/h 76% 0 mm
04:10 -3.6 °C -7.2 °C 1014.4 hPa NNW 3.2 km/h 14.5 km/h 76% 0 mm
04:15 -3.7 °C -7.3 °C 1014.4 hPa NW 6.4 km/h 16.1 km/h 76% 0 mm
04:19 -3.7 °C -7.4 °C 1014.4 hPa NNW 3.2 km/h 16.1 km/h 75% 0 mm
04:25 -3.8 °C -7.7 °C 1014.8 hPa NW 6.4 km/h 16.1 km/h 74% 0 mm
04:30 -3.8 °C -7.7 °C 1014.8 hPa NNW 8 km/h 19.3 km/h 74% 0 mm
04:35 -3.8 °C -7.9 °C 1014.8 hPa NW 3.2 km/h 22.5 km/h 73% 0 mm
04:40 -3.9 °C -8 °C 1015.1 hPa NW 11.3 km/h 22.5 km/h 73% 0 mm
04:44 -3.9 °C -7.8 °C 1015.1 hPa NNW 6.4 km/h 22.5 km/h 74% 0 mm
04:50 -3.9 °C -7.9 °C 1015.1 hPa NNW 6.4 km/h 24.1 km/h 74% 0 mm
04:55 -4 °C -7.9 °C 1015.5 hPa NNW 8 km/h 24.1 km/h 74% 0 mm
04:59 -4.1 °C -8 °C 1015.5 hPa NW 8 km/h 17.7 km/h 74% 0 mm
05:04 -4.2 °C -7.9 °C 1015.5 hPa NNW 8 km/h 17.7 km/h 75% 0 mm
05:10 -4.2 °C -8.2 °C 1015.5 hPa NNW 6.4 km/h 17.7 km/h 74% 0 mm
05:15 -4.3 °C -8.1 °C 1015.5 hPa NNW 6.4 km/h 12.9 km/h 75% 0 mm
05:19 -4.3 °C -8.1 °C 1015.8 hPa NNW 6.4 km/h 17.7 km/h 75% 0 mm
05:25 -4.4 °C -8 °C 1015.8 hPa NNW 8 km/h 17.7 km/h 76% 0 mm
05:30 -4.5 °C -8.1 °C 1015.8 hPa NNW 6.4 km/h 16.1 km/h 76% 0 mm
05:34 -4.6 °C -8.2 °C 1015.8 hPa NNW 4.8 km/h 19.3 km/h 76% 0 mm
05:40 -4.8 °C -8.6 °C 1016.1 hPa NW 11.3 km/h 24.1 km/h 75% 0 mm
05:45 -5 °C -8.9 °C 1016.1 hPa North 8 km/h 24.1 km/h 74% 0 mm
05:50 -5.2 °C -9.1 °C 1016.5 hPa NW 8 km/h 24.1 km/h 74% 0 mm
05:54 -5.4 °C -9.1 °C 1016.5 hPa NW 9.7 km/h 20.9 km/h 75% 0 mm
06:00 -5.5 °C -9.2 °C 1016.8 hPa NW 8 km/h 16.1 km/h 75% 0 mm
06:04 -5.6 °C -9.3 °C 1016.8 hPa NW 4.8 km/h 16.1 km/h 75% 0 mm
06:09 -5.6 °C -9.2 °C 1017.2 hPa North 9.7 km/h 22.5 km/h 76% 0 mm
06:15 -5.7 °C -9.6 °C 1017.2 hPa NW 11.3 km/h 22.5 km/h 74% 0 mm
06:20 -5.8 °C -10 °C 1017.2 hPa NW 6.4 km/h 27.4 km/h 72% 0 mm
06:30 -5.9 °C -10.6 °C 1017.5 hPa NNW 3.2 km/h 22.5 km/h 70% 0 mm
06:35 -6 °C -10.8 °C 1017.5 hPa NW 11.3 km/h 30.6 km/h 69% 0 mm
06:40 -6.2 °C -11.1 °C 1017.5 hPa NW 6.4 km/h 30.6 km/h 68% 0 mm
06:44 -6.3 °C -11.2 °C 1017.5 hPa NW 11.3 km/h 25.7 km/h 68% 0 mm
06:50 -6.5 °C -11.6 °C 1017.8 hPa WNW 6.4 km/h 24.1 km/h 67% 0 mm
06:54 -6.7 °C -11.8 °C 1017.8 hPa NNW 3.2 km/h 14.5 km/h 67% 0 mm
07:00 -6.8 °C -11.9 °C 1017.8 hPa NW 4.8 km/h 12.9 km/h 67% 0 mm
07:04 -7.1 °C -12.2 °C 1017.8 hPa NW 4.8 km/h 12.9 km/h 67% 0 mm
07:09 -7.3 °C -12.3 °C 1017.8 hPa NW 1.6 km/h 12.9 km/h 67% 0 mm
07:15 -7.4 °C -12.3 °C 1017.8 hPa NW 4.8 km/h 9.7 km/h 68% 0 mm
07:19 -7.4 °C -12.3 °C 1018.2 hPa NW 6.4 km/h 12.9 km/h 68% 0 mm
07:25 -7.4 °C -12.3 °C 1018.2 hPa NW 8 km/h 19.3 km/h 68% 0 mm
07:29 -7.3 °C -12.2 °C 1018.5 hPa NW 6.4 km/h 19.3 km/h 68% 0 mm
07:34 -7.4 °C -12.3 °C 1018.5 hPa NW 4.8 km/h 17.7 km/h 68% 0 mm
07:40 -7.5 °C -12.6 °C 1018.5 hPa NW 4.8 km/h 14.5 km/h 67% 0 mm
07:45 -7.6 °C -12.7 °C 1018.5 hPa NNW 8 km/h 17.7 km/h 67% 0 mm
07:50 -7.7 °C -12.7 °C 1018.5 hPa NNW 4.8 km/h 17.7 km/h 67% 0 mm
07:54 -7.8 °C -12.8 °C 1018.5 hPa NNW 3.2 km/h 16.1 km/h 67% 0 mm
07:59 -7.9 °C -12.8 °C 1018.5 hPa NNW 4.8 km/h 11.3 km/h 68% 0 mm
08:04 -8.1 °C -12.9 °C 1018.5 hPa Calm   11.3 km/h 68% 0 mm
08:10 -8.1 °C -12.8 °C 1018.8 hPa Calm   11.3 km/h 69% 0 mm
08:14 -8.2 °C -12.8 °C 1018.8 hPa NNW 3.2 km/h 11.3 km/h 69% 0 mm
08:19 -8.2 °C -12.7 °C 1018.8 hPa NW 4.8 km/h 11.3 km/h 70% 0 mm
08:25 -8.1 °C -12.6 °C 1018.8 hPa NW 3.2 km/h 9.7 km/h 70% 0 mm
08:30 -7.9 °C -12.4 °C 1019.2 hPa NW 1.6 km/h 9.7 km/h 70% 0 mm
08:34 -7.9 °C -12.6 °C 1019.2 hPa NW 3.2 km/h 19.3 km/h 69% 0 mm
08:40 -7.8 °C -12.5 °C 1019.2 hPa NW 1.6 km/h 19.3 km/h 69% 0 mm
08:44 -7.8 °C -12.5 °C 1019.2 hPa NW 6.4 km/h 16.1 km/h 69% 0 mm
08:49 -7.8 °C -12.3 °C 1019.2 hPa NW 6.4 km/h 16.1 km/h 70% 0 mm
08:54 -7.6 °C -12.1 °C 1019.5 hPa NNW 4.8 km/h 14.5 km/h 70% 0 mm
08:59 -7.4 °C -12.2 °C 1019.5 hPa NNW 8 km/h 16.1 km/h 69% 0 mm
09:05 -7.3 °C -12 °C 1019.5 hPa NW 6.4 km/h 16.1 km/h 69% 0 mm
09:09 -7 °C -11.9 °C 1019.5 hPa NW 8 km/h 16.1 km/h 68% 0 mm
09:14 -6.9 °C -11.8 °C 1019.9 hPa NW 9.7 km/h 17.7 km/h 68% 0 mm
09:19 -7 °C -11.7 °C 1019.9 hPa NNW 6.4 km/h 17.7 km/h 69% 0 mm
09:25 -7.1 °C -11.8 °C 1020.2 hPa North 4.8 km/h 12.9 km/h 69% 0 mm
09:29 -7 °C -11.7 °C 1020.2 hPa NNW 6.4 km/h 12.9 km/h 69% 0 mm
09:34 -6.9 °C -11.4 °C 1020.2 hPa NNW 4.8 km/h 12.9 km/h 70% 0 mm
09:40 -6.8 °C -11.6 °C 1020.2 hPa NW 8 km/h 16.1 km/h 69% 0 mm
09:50 -7.1 °C -11.6 °C 1020.5 hPa NW 1.6 km/h 11.3 km/h 70% 0 mm
09:54 -7.1 °C -11.7 °C 1020.5 hPa NNW 8 km/h 11.3 km/h 70% 0 mm
09:59 -7.4 °C -11.7 °C 1020.5 hPa NNW 8 km/h 16.1 km/h 71% 0 mm
10:04 -7.3 °C -11.6 °C 1020.5 hPa NNW 3.2 km/h 16.1 km/h 71% 0 mm
10:09 -7 °C -11.6 °C 1020.5 hPa NW 1.6 km/h 14.5 km/h 70% 0 mm
10:14 -6.8 °C -11.5 °C 1020.9 hPa NNW 8 km/h 17.7 km/h 69% 0 mm
10:19 -6.7 °C -11.6 °C 1020.9 hPa NW 6.4 km/h 17.7 km/h 68% 0 mm
10:25 -6.7 °C -11.8 °C 1020.9 hPa NW 6.4 km/h 17.7 km/h 67% 0 mm
10:35 -6.1 °C -11.4 °C 1021.2 hPa NNW 4.8 km/h 11.3 km/h 66% 0 mm
10:39 -5.9 °C -11.6 °C 1021.2 hPa North 1.6 km/h 17.7 km/h 64% 0 mm
10:45 -6.2 °C -12.1 °C 1021.2 hPa NW 4.8 km/h 17.7 km/h 63% 0 mm
10:50 -6.2 °C -12.1 °C 1021.6 hPa NNW 6.4 km/h 14.5 km/h 63% 0 mm
10:54 -6.1 °C -12 °C 1021.6 hPa NNW 6.4 km/h 11.3 km/h 63% 0 mm
10:59 -6 °C -12.1 °C 1021.6 hPa NW 8 km/h 14.5 km/h 62% 0 mm
11:04 -6 °C -12.3 °C 1021.6 hPa WNW 6.4 km/h 14.5 km/h 61% 0 mm
11:09 -6 °C -12.1 °C 1021.2 hPa Calm   12.9 km/h 62% 0 mm
11:14 -5.7 °C -12.1 °C 1021.2 hPa WNW 4.8 km/h 12.9 km/h 61% 0 mm
11:19 -5.8 °C -12.3 °C 1021.2 hPa West 8 km/h 12.9 km/h 60% 0 mm
11:25 -6.1 °C -12.3 °C 1021.2 hPa West 4.8 km/h 16.1 km/h 61% 0 mm
11:29 -6 °C -12.3 °C 1021.2 hPa West 9.7 km/h 16.1 km/h 61% 0 mm
11:34 -5.9 °C -12.4 °C 1021.2 hPa NW 3.2 km/h 14.5 km/h 60% 0 mm
11:39 -5.8 °C -12.5 °C 1021.2 hPa NNW 4.8 km/h 17.7 km/h 59% 0 mm
11:44 -5.7 °C -12.4 °C 1020.9 hPa Calm   17.7 km/h 59% 0 mm
11:50 -5.4 °C -12.2 °C 1021.2 hPa West 6.4 km/h 14.5 km/h 59% 0 mm
11:59 -5.8 °C -12.9 °C 1020.9 hPa NW 6.4 km/h 19.3 km/h 57% 0 mm
12:04 -5.9 °C -12.6 °C 1021.2 hPa NW 6.4 km/h 19.3 km/h 59% 0 mm
12:09 -5.8 °C -12.7 °C 1020.9 hPa NNW 8 km/h 16.1 km/h 58% 0 mm
12:14 -6 °C -12.9 °C 1021.2 hPa WNW 8 km/h 16.1 km/h 58% 0 mm
12:20 -6.2 °C -13.1 °C 1020.9 hPa WNW 9.7 km/h 24.1 km/h 58% 0 mm
12:29 -5.7 °C -12.6 °C 1020.9 hPa West 9.7 km/h 20.9 km/h 58% 0 mm
12:34 -5.2 °C -12.6 °C 1020.5 hPa NW 9.7 km/h 19.3 km/h 56% 0 mm
12:39 -4.7 °C -12.3 °C 1020.5 hPa WNW 6.4 km/h 16.1 km/h 55% 0 mm
12:44 -4.4 °C -12.8 °C 1020.5 hPa WNW 9.7 km/h 17.7 km/h 52% 0 mm
12:49 -4.6 °C -12.9 °C 1020.5 hPa WNW 9.7 km/h 17.7 km/h 52% 0 mm
12:54 -4.6 °C -12.9 °C 1020.5 hPa West 9.7 km/h 20.9 km/h 52% 0 mm
12:59 -4.5 °C -13.3 °C 1020.5 hPa West 11.3 km/h 20.9 km/h 50% 0 mm
13:04 -4.7 °C -13.3 °C 1020.5 hPa West 12.9 km/h 22.5 km/h 51% 0 mm
13:09 -4.8 °C -13.4 °C 1020.5 hPa WSW 9.7 km/h 22.5 km/h 51% 0 mm
13:14 -5 °C -13.3 °C 1020.5 hPa WNW 4.8 km/h 16.1 km/h 52% 0 mm
13:19 -5.2 °C -13.5 °C 1020.5 hPa West 4.8 km/h 16.1 km/h 52% 0 mm
13:24 -5.3 °C -13.8 °C 1020.5 hPa WNW 6.4 km/h 12.9 km/h 51% 0 mm
13:29 -5.2 °C -13.8 °C 1020.5 hPa NW 9.7 km/h 14.5 km/h 51% 0 mm
13:34 -5.1 °C -13.6 °C 1020.5 hPa WSW 8 km/h 16.1 km/h 51% 0 mm
13:39 -4.7 °C -13.1 °C 1020.5 hPa WSW 4.8 km/h 16.1 km/h 52% 0 mm
13:44 -4.4 °C -12.8 °C 1020.5 hPa WNW 6.4 km/h 12.9 km/h 52% 0 mm
13:49 -4.4 °C -12.8 °C 1020.5 hPa NNW 8 km/h 12.9 km/h 52% 0 mm
13:54 -4.7 °C -12.8 °C 1020.5 hPa WSW 8 km/h 16.1 km/h 53% 0 mm
13:59 -4.9 °C -13.2 °C 1020.5 hPa WNW 11.3 km/h 16.1 km/h 52% 0 mm
14:05 -5.1 °C -12.9 °C 1020.9 hPa NW 6.4 km/h 16.1 km/h 54% 0 mm
14:09 -5.2 °C -13.1 °C 1020.9 hPa West 6.4 km/h 16.1 km/h 54% 0 mm
14:14 -5.3 °C -13.1 °C 1020.9 hPa WNW 9.7 km/h 14.5 km/h 54% 0 mm
14:19 -5.3 °C -12.7 °C 1020.9 hPa NW 8 km/h 14.5 km/h 56% 0 mm
14:24 -5.3 °C -12.4 °C 1020.9 hPa WSW 4.8 km/h 25.7 km/h 57% 0 mm
14:29 -5.2 °C -12.4 °C 1021.2 hPa West 8 km/h 25.7 km/h 57% 0 mm
14:34 -5.2 °C -12.6 °C 1021.2 hPa WNW 9.7 km/h 14.5 km/h 56% 0 mm
14:40 -5.1 °C -12.7 °C 1021.2 hPa NW 9.7 km/h 17.7 km/h 55% 0 mm
14:44 -5 °C -12.9 °C 1021.6 hPa NW 9.7 km/h 19.3 km/h 54% 0 mm
14:49 -5.1 °C -13.2 °C 1021.6 hPa WNW 9.7 km/h 19.3 km/h 53% 0 mm
14:54 -5.1 °C -13.2 °C 1021.6 hPa WNW 4.8 km/h 14.5 km/h 53% 0 mm
14:59 -5.1 °C -13.2 °C 1021.6 hPa NW 11.3 km/h 27.4 km/h 53% 0 mm
15:04 -5 °C -12.9 °C 1021.6 hPa WNW 6.4 km/h 27.4 km/h 54% 0 mm
15:09 -4.9 °C -13.1 °C 1021.2 hPa WNW 8 km/h 17.7 km/h 53% 0 mm
15:14 -4.9 °C -13.2 °C 1021.6 hPa WNW 6.4 km/h 19.3 km/h 52% 0 mm
15:19 -4.8 °C -13.6 °C 1021.6 hPa WNW 11.3 km/h 27.4 km/h 50% 0 mm
15:24 -4.7 °C -13.1 °C 1021.6 hPa West 11.3 km/h 27.4 km/h 52% 0 mm
15:29 -4.4 °C -13.3 °C 1021.6 hPa NW 4.8 km/h 17.7 km/h 50% 0 mm
15:34 -4.3 °C -13.2 °C 1021.6 hPa NW 8 km/h 20.9 km/h 50% 0 mm
15:40 -4.4 °C -13.5 °C 1021.6 hPa WNW 9.7 km/h 20.9 km/h 49% 0 mm
15:50 -4.9 °C -14 °C 1021.6 hPa WNW 11.3 km/h 29 km/h 49% 0 mm
15:54 -5.1 °C -13.9 °C 1021.9 hPa NNW 9.7 km/h 29 km/h 50% 0 mm
15:59 -5.3 °C -14.1 °C 1021.9 hPa NW 6.4 km/h 27.4 km/h 50% 0 mm
16:04 -5.4 °C -14.2 °C 1021.9 hPa NW 9.7 km/h 22.5 km/h 50% 0 mm
16:09 -5.6 °C -14.3 °C 1021.9 hPa NW 6.4 km/h 19.3 km/h 50% 0 mm
16:14 -5.7 °C -14.2 °C 1021.9 hPa NNW 8 km/h 19.3 km/h 51% 0 mm
16:19 -5.7 °C -14.3 °C 1021.9 hPa NW 3.2 km/h 17.7 km/h 51% 0 mm
16:24 -5.7 °C -14.3 °C 1021.9 hPa NW 4.8 km/h 11.3 km/h 51% 0 mm
16:29 -5.7 °C -14.4 °C 1021.9 hPa NW 9.7 km/h 17.7 km/h 50% 0 mm
16:34 -5.6 °C -14.4 °C 1021.9 hPa NW 8 km/h 17.7 km/h 50% 0 mm
16:39 -5.7 °C -14.4 °C 1021.9 hPa NW 8 km/h 17.7 km/h 50% 0 mm
16:44 -5.7 °C -14.5 °C 1021.9 hPa NW 8 km/h 20.9 km/h 50% 0 mm
16:49 -5.8 °C -14.3 °C 1021.9 hPa WNW 4.8 km/h 20.9 km/h 51% 0 mm
16:54 -6.1 °C -14.6 °C 1021.9 hPa NW 3.2 km/h 14.5 km/h 51% 0 mm
16:59 -6.2 °C -14.4 °C 1021.9 hPa NNW 9.7 km/h 22.5 km/h 52% 0 mm
17:04 -6.1 °C -14.6 °C 1021.9 hPa NW 8 km/h 22.5 km/h 51% 0 mm
17:09 -6.2 °C -14.4 °C 1022.2 hPa West 6.4 km/h 16.1 km/h 52% 0 mm
17:14 -6.3 °C -14.6 °C 1022.2 hPa NW 3.2 km/h 11.3 km/h 52% 0 mm
17:20 -6.6 °C -14.6 °C 1022.2 hPa NNW 3.2 km/h 8 km/h 53% 0 mm
17:29 -6.8 °C -14.6 °C 1022.2 hPa NW 6.4 km/h 9.7 km/h 54% 0 mm
17:34 -6.8 °C -14.6 °C 1022.2 hPa WNW 4.8 km/h 9.7 km/h 54% 0 mm
17:39 -6.8 °C -14.4 °C 1022.2 hPa WNW 3.2 km/h 9.7 km/h 55% 0 mm
17:44 -6.8 °C -14.4 °C 1022.6 hPa WNW 1.6 km/h 8 km/h 55% 0 mm
17:49 -6.8 °C -14.4 °C 1022.6 hPa WNW 1.6 km/h 6.4 km/h 55% 0 mm
17:54 -6.9 °C -14.5 °C 1022.6 hPa Calm   6.4 km/h 55% 0 mm
17:59 -7.1 °C -14.4 °C 1022.6 hPa WNW 1.6 km/h 6.4 km/h 56% 0 mm
18:04 -7.3 °C -14.6 °C 1022.6 hPa WNW 1.6 km/h 6.4 km/h 56% 0 mm
18:09 -7.3 °C -14.4 °C 1022.9 hPa WNW 3.2 km/h 6.4 km/h 57% 0 mm
18:15 -7.3 °C -14.4 °C 1022.9 hPa WNW 1.6 km/h 6.4 km/h 57% 0 mm
18:24 -7.4 °C -14.5 °C 1022.9 hPa Calm   6.4 km/h 57% 0 mm
18:29 -7.6 °C -14.4 °C 1022.9 hPa Calm   6.4 km/h 58% 0 mm
18:34 -7.8 °C -14.6 °C 1022.9 hPa Calm   1.6 km/h 58% 0 mm
18:39 -7.9 °C -14.6 °C 1022.9 hPa Calm   1.6 km/h 59% 0 mm
18:44 -8 °C -14.6 °C 1022.9 hPa Calm     59% 0 mm
18:49 -8.1 °C -14.3 °C 1022.9 hPa Calm     61% 0 mm
18:54 -8.2 °C -14.2 °C 1022.9 hPa Calm     62% 0 mm
19:00 -8.2 °C -14.2 °C 1022.9 hPa Calm     62% 0 mm
19:04 -8.3 °C -14.1 °C 1022.9 hPa Calm     63% 0 mm
19:09 -8.4 °C -14 °C 1022.9 hPa Calm     64% 0 mm
19:14 -8.6 °C -14.2 °C 1022.6 hPa Calm     64% 0 mm
19:19 -8.7 °C -14.1 °C 1022.9 hPa Calm     65% 0 mm
19:24 -9.1 °C -14.5 °C 1022.6 hPa Calm     65% 0 mm
19:29 -9.4 °C -14.6 °C 1022.6 hPa Calm     66% 0 mm
19:34 -9.4 °C -14.4 °C 1022.9 hPa Calm     67% 0 mm
19:40 -9.3 °C -14.5 °C 1022.9 hPa Calm     66% 0 mm
19:44 -9.4 °C -14.4 °C 1022.9 hPa Calm   1.6 km/h 67% 0 mm
19:49 -9.5 °C -14.3 °C 1022.9 hPa Calm   1.6 km/h 68% 0 mm
19:54 -9.4 °C -14.1 °C 1022.9 hPa Calm     69% 0 mm
19:59 -9.2 °C -13.9 °C 1022.9 hPa Calm     69% 0 mm
20:04 -9.3 °C -14.2 °C 1022.9 hPa Calm     68% 0 mm
20:09 -9.7 °C -14.4 °C 1022.9 hPa Calm     68% 0 mm
20:14 -10.2 °C -15 °C 1022.9 hPa Calm     68% 0 mm
20:19 -10.8 °C -15.3 °C 1022.9 hPa Calm     69% 0 mm
20:24 -10.9 °C -15.2 °C 1022.9 hPa Calm     71% 0 mm
20:29 -10.7 °C -14.7 °C 1022.9 hPa Calm     72% 0 mm
20:34 -9.9 °C -14 °C 1022.9 hPa Calm   3.2 km/h 72% 0 mm
20:40 -9.4 °C -13.7 °C 1022.9 hPa Calm   3.2 km/h 71% 0 mm
20:50 -9.7 °C -14.2 °C 1022.9 hPa Calm     70% 0 mm
20:59 -10.4 °C -14.4 °C 1023.2 hPa Calm     72% 0 mm
21:04 -10.5 °C -14.4 °C 1023.2 hPa Calm     73% 0 mm
21:09 -10.5 °C -14.2 °C 1023.2 hPa Calm     74% 0 mm
21:14 -10.3 °C -13.9 °C 1022.9 hPa Calm     75% 0 mm
21:19 -10.3 °C -13.9 °C 1023.2 hPa Calm     75% 0 mm
21:24 -10.4 °C -14 °C 1022.9 hPa Calm     75% 0 mm
21:29 -10.4 °C -14 °C 1022.9 hPa Calm     75% 0 mm
21:34 -10.2 °C -13.8 °C 1022.9 hPa Calm     75% 0 mm
21:40 -10.2 °C -13.9 °C 1022.9 hPa Calm     74% 0 mm
21:45 -10.3 °C -14 °C 1022.9 hPa Calm     74% 0 mm
21:54 -10.6 °C -14.1 °C 1023.2 hPa Calm     75% 0 mm
21:59 -10.7 °C -14.3 °C 1023.2 hPa Calm     75% 0 mm
22:04 -10.9 °C -14.5 °C 1023.2 hPa Calm     75% 0 mm
22:09 -11 °C -14.4 °C 1022.9 hPa Calm     76% 0 mm
22:14 -11.1 °C -14.5 °C 1023.2 hPa Calm     76% 0 mm
22:19 -11.2 °C -14.4 °C 1022.9 hPa Calm     77% 0 mm
22:25 -11.1 °C -14.3 °C 1023.2 hPa Calm     77% 0 mm
22:30 -11 °C -14.1 °C 1023.2 hPa Calm     78% 0 mm
22:40 -10.8 °C -13.8 °C 1023.2 hPa Calm     79% 0 mm
22:45 -10.7 °C -13.7 °C 1023.2 hPa Calm     79% 0 mm
22:54 -10.3 °C -13.2 °C 1023.2 hPa Calm     79% 0 mm
22:59 -10.1 °C -13 °C 1022.9 hPa Calm     79% 0 mm
23:04 -9.9 °C -12.9 °C 1022.9 hPa Calm     79% 0 mm
23:09 -9.9 °C -12.8 °C 1022.9 hPa Calm     79% 0 mm
23:14 -9.8 °C -12.8 °C 1022.9 hPa Calm     79% 0 mm
23:19 -9.8 °C -12.9 °C 1022.9 hPa Calm     78% 0 mm
23:24 -9.8 °C -12.8 °C 1022.9 hPa Calm     79% 0 mm
23:29 -9.8 °C -12.7 °C 1022.9 hPa Calm     79% 0 mm
23:35 -9.7 °C -12.7 °C 1022.6 hPa Calm     79% 0 mm
23:45 -9.6 °C -12.6 °C 1022.6 hPa Calm     79% 0 mm
23:54 -9.5 °C -12.4 °C 1022.9 hPa Calm     79% 0 mm
23:59 -9.3 °C -12.2 °C 1022.6 hPa Calm     79% 0 mm
Westford Weather
Compliments of Weather Underground

 
 
Current Radar Loop:

Copyright © WestfordWeather.net 2007-2014. All rights reserved.